TimeCST,TemperatureF,Dew PointF,Humidity,Sea Level PressureIn,VisibilityMPH,Wind Direction,Wind SpeedMPH,Gust SpeedMPH,PrecipitationIn,Events,Conditions,WindDirDegrees,DateUTC
12:03 AM,59.0,57.2,94,29.87,0.8,East,15.0,-,0.36,Rain-Thunderstorm,Heavy Thunderstorms and Rain,90,2013-02-25 06:03:00
12:13 AM,59.0,59.0,100,29.87,1.2,ESE,15.0,-,0.57,Rain-Thunderstorm,Heavy Thunderstorms and Rain,110,2013-02-25 06:13:00
12:29 AM,60.8,60.8,100,29.86,2.5,East,8.1,-,0.75,Rain-Thunderstorm,Heavy Thunderstorms and Rain,100,2013-02-25 06:29:00
12:41 AM,60.8,59.0,94,29.84,4.0,NE,6.9,-,0.79,Rain-Thunderstorm,Thunderstorms and Rain,50,2013-02-25 06:41:00
12:56 AM,60.1,60.1,100,29.83,9.0,ENE,11.5,-,0.79,Rain-Thunderstorm,Light Thunderstorms and Rain,70,2013-02-25 06:56:00
1:09 AM,60.8,59.0,94,29.82,9.0,East,10.4,-,0.00,Rain,Light Rain,80,2013-02-25 07:09:00
1:17 AM,59.0,59.0,100,29.81,8.0,ENE,10.4,-,0.00,Rain,Light Rain,70,2013-02-25 07:17:00
1:41 AM,59.0,59.0,100,29.79,7.0,ENE,11.5,-,0.00,Rain-Thunderstorm,Light Thunderstorms and Rain,60,2013-02-25 07:41:00
1:56 AM,59.0,59.0,100,29.82,3.0,East,11.5,-,0.08,Rain-Thunderstorm,Heavy Thunderstorms and Rain,100,2013-02-25 07:56:00
2:18 AM,60.8,59.0,94,29.78,9.0,ENE,10.4,-,0.00,Rain-Thunderstorm,Light Thunderstorms and Rain,60,2013-02-25 08:18:00
2:26 AM,60.8,60.8,100,29.76,10.0,ENE,13.8,-,0.00,Rain-Thunderstorm,Light Thunderstorms and Rain,70,2013-02-25 08:26:00
2:56 AM,60.1,60.1,100,29.77,9.0,East,12.7,-,0.00,Rain-Thunderstorm,Light Thunderstorms and Rain,90,2013-02-25 08:56:00
3:08 AM,60.8,60.8,100,29.77,10.0,East,10.4,-,0.00,Rain-Thunderstorm,Light Thunderstorms and Rain,80,2013-02-25 09:08:00
3:23 AM,60.8,60.8,100,29.78,10.0,ENE,11.5,-,0.00,Rain-Thunderstorm,Light Thunderstorms and Rain,70,2013-02-25 09:23:00
3:56 AM,61.0,60.1,97,29.75,8.0,East,13.8,-,N/A,Rain-Thunderstorm,Light Thunderstorms and Rain,80,2013-02-25 09:56:00
4:07 AM,60.8,60.8,100,29.71,10.0,East,16.1,-,0.00,Rain-Thunderstorm,Light Thunderstorms and Rain,90,2013-02-25 10:07:00
4:34 AM,62.6,60.8,94,29.70,8.0,NE,18.4,-,0.03,Rain-Thunderstorm,Light Thunderstorms and Rain,50,2013-02-25 10:34:00
4:43 AM,62.6,60.8,94,29.70,7.0,North,13.8,31.1,0.05,Rain-Thunderstorm,Heavy Thunderstorms and Rain,10,2013-02-25 10:43:00
4:50 AM,62.6,60.8,94,29.77,2.5,West,11.5,27.6,0.19,Rain-Thunderstorm,Heavy Thunderstorms and Rain,260,2013-02-25 10:50:00
4:52 AM,62.6,60.8,94,29.77,1.2,Variable,3.5,26.5,0.31,Rain-Thunderstorm,Heavy Thunderstorms and Rain,0,2013-02-25 10:52:00
4:56 AM,61.0,61.0,100,29.78,1.0,NNE,9.2,26.5,0.38,Rain-Thunderstorm,Heavy Thunderstorms and Rain,20,2013-02-25 10:56:00
5:08 AM,60.8,60.8,100,29.76,3.0,NNE,15.0,23.0,0.07,Rain-Thunderstorm,Heavy Thunderstorms and Rain,30,2013-02-25 11:08:00
5:20 AM,60.8,60.8,100,29.78,4.0,NE,8.1,-,0.14,Rain-Thunderstorm,Heavy Thunderstorms and Rain,40,2013-02-25 11:20:00
5:51 AM,60.8,60.8,100,29.79,5.0,NNE,10.4,-,0.22,Rain-Thunderstorm,Thunderstorms and Rain,30,2013-02-25 11:51:00
5:56 AM,61.0,60.1,97,29.79,7.0,NNE,10.4,-,0.22,Rain-Thunderstorm,Light Thunderstorms and Rain,30,2013-02-25 11:56:00
6:09 AM,60.8,59.0,94,29.81,4.0,NNW,10.4,18.4,0.03,Rain-Thunderstorm,Heavy Thunderstorms and Rain,330,2013-02-25 12:09:00
6:14 AM,60.8,59.0,94,29.81,2.0,North,9.2,-,0.04,Rain-Thunderstorm,Heavy Thunderstorms and Rain,360,2013-02-25 12:14:00
6:40 AM,60.8,59.0,94,29.79,4.0,NE,9.2,-,0.18,Rain-Thunderstorm,Light Thunderstorms and Rain,40,2013-02-25 12:40:00
6:46 AM,60.8,59.0,94,29.79,2.0,NE,15.0,21.9,0.21,Rain-Thunderstorm,Heavy Thunderstorms and Rain,40,2013-02-25 12:46:00
6:56 AM,60.1,59.0,96,29.80,2.0,NE,16.1,21.9,0.25,Rain-Thunderstorm,Heavy Thunderstorms and Rain,40,2013-02-25 12:56:00
7:13 AM,60.8,59.0,94,29.78,3.0,NNE,19.6,28.8,N/A,Rain-Thunderstorm,Thunderstorms and Rain,30,2013-02-25 13:13:00
7:33 AM,60.8,59.0,94,29.80,5.0,NNE,15.0,25.3,N/A,Rain-Thunderstorm,Light Thunderstorms and Rain,30,2013-02-25 13:33:00
7:43 AM,60.8,59.0,94,29.80,4.0,NE,17.3,23.0,N/A,Rain,Heavy Rain,50,2013-02-25 13:43:00
7:56 AM,60.1,59.0,96,29.79,5.0,ENE,16.1,26.5,N/A,Rain,Light Rain,60,2013-02-25 13:56:00
8:56 AM,61.0,59.0,93,29.80,10.0,NE,15.0,23.0,0.02,Rain,Light Rain,50,2013-02-25 14:56:00
9:49 AM,60.8,59.0,94,29.80,2.0,NE,12.7,18.4,0.04,Rain,Heavy Rain,40,2013-02-25 15:49:00
9:56 AM,61.0,59.0,93,29.81,4.0,ENE,11.5,-,0.04,Rain,Rain,60,2013-02-25 15:56:00
10:15 AM,60.8,59.0,94,29.81,10.0,NE,10.4,-,0.00,,Overcast,40,2013-02-25 16:15:00
10:56 AM,63.0,60.1,90,29.80,10.0,East,18.4,25.3,0.00,,Overcast,90,2013-02-25 16:56:00
11:56 AM,64.0,60.1,87,29.77,10.0,East,15.0,24.2,N/A,,Mostly Cloudy,90,2013-02-25 17:56:00
12:56 PM,64.9,59.0,81,29.73,10.0,East,23.0,35.7,N/A,,Mostly Cloudy,90,2013-02-25 18:56:00
1:56 PM,64.0,57.9,80,29.70,10.0,East,19.6,28.8,N/A,,Overcast,100,2013-02-25 19:56:00
2:56 PM,63.0,59.0,87,29.69,10.0,East,18.4,26.5,N/A,,Overcast,90,2013-02-25 20:56:00
3:31 PM,62.6,59.0,88,29.67,10.0,ESE,18.4,27.6,0.00,Rain,Light Rain,110,2013-02-25 21:31:00
3:56 PM,63.0,60.1,90,29.69,10.0,ESE,17.3,26.5,0.00,Rain,Light Rain,110,2013-02-25 21:56:00
4:16 PM,62.6,60.8,94,29.66,5.0,ESE,20.7,26.5,0.00,Rain-Thunderstorm,Light Thunderstorms and Rain,120,2013-02-25 22:16:00
4:32 PM,62.6,60.8,94,29.68,1.2,ESE,18.4,-,N/A,Rain-Thunderstorm,Heavy Thunderstorms and Rain,110,2013-02-25 22:32:00
4:45 PM,62.6,60.8,94,29.65,4.0,East,15.0,25.3,N/A,Rain-Thunderstorm,Light Thunderstorms and Rain,100,2013-02-25 22:45:00
4:56 PM,62.1,61.0,96,29.65,6.0,East,12.7,-,0.17,Rain,Light Rain,100,2013-02-25 22:56:00
5:33 PM,62.6,60.8,94,29.62,2.0,East,12.7,-,0.04,Rain,Heavy Rain,80,2013-02-25 23:33:00
5:41 PM,62.6,60.8,94,29.63,5.0,East,10.4,-,0.04,Rain,Light Rain,80,2013-02-25 23:41:00
5:56 PM,63.0,62.1,97,29.62,6.0,ESE,12.7,-,0.07,,Overcast,110,2013-02-25 23:56:00
6:31 PM,62.6,62.6,100,29.60,7.0,East,19.6,25.3,N/A,Thunderstorm,Thunderstorm,100,2013-02-26 00:31:00
6:48 PM,62.6,62.6,100,29.59,7.0,East,18.4,24.2,N/A,,Overcast,100,2013-02-26 00:48:00
6:56 PM,63.0,62.1,97,29.61,7.0,East,17.3,26.5,N/A,,Overcast,100,2013-02-26 00:56:00
7:07 PM,62.6,62.6,100,29.60,5.0,ESE,16.1,-,0.00,Rain-Thunderstorm,Light Thunderstorms and Rain,110,2013-02-26 01:07:00
7:40 PM,62.6,62.6,100,29.62,7.0,SE,15.0,21.9,0.04,Rain,Light Rain,130,2013-02-26 01:40:00
7:56 PM,64.0,62.1,93,29.61,7.0,SE,18.4,25.3,0.04,Rain,Light Rain,130,2013-02-26 01:56:00
8:05 PM,64.4,62.6,94,29.60,10.0,SE,20.7,28.8,0.00,,Overcast,130,2013-02-26 02:05:00
8:32 PM,64.4,62.6,94,29.61,10.0,SE,18.4,24.2,0.00,Rain,Light Rain,130,2013-02-26 02:32:00
8:56 PM,64.9,63.0,93,29.60,10.0,SE,17.3,24.2,0.00,Rain,Light Rain,140,2013-02-26 02:56:00
9:03 PM,64.4,62.6,94,29.59,10.0,SE,19.6,25.3,0.00,,Mostly Cloudy,140,2013-02-26 03:03:00
9:56 PM,64.9,63.0,93,29.59,4.0,South,20.7,25.3,N/A,Rain,Rain,180,2013-02-26 03:56:00
10:42 PM,64.4,64.4,100,29.57,3.0,SSE,13.8,-,0.11,Rain-Thunderstorm,Heavy Thunderstorms and Rain,160,2013-02-26 04:42:00
10:44 PM,64.4,64.4,100,29.57,2.5,South,13.8,-,0.13,Rain-Thunderstorm,Heavy Thunderstorms and Rain,170,2013-02-26 04:44:00
10:52 PM,64.4,64.4,100,29.56,2.0,SSE,15.0,-,0.22,Rain-Thunderstorm,Heavy Thunderstorms and Rain,160,2013-02-26 04:52:00
10:56 PM,64.9,64.0,97,29.57,2.0,SSE,16.1,-,0.23,Rain-Thunderstorm,Heavy Thunderstorms and Rain,160,2013-02-26 04:56:00
11:15 PM,64.4,64.4,100,29.56,2.5,South,12.7,-,0.12,Rain,Heavy Rain,180,2013-02-26 05:15:00
11:36 PM,64.4,64.4,100,29.56,2.0,SSW,12.7,-,0.29,Rain,Heavy Rain,200,2013-02-26 05:36:00
11:43 PM,64.4,64.4,100,29.55,1.8,South,12.7,-,0.34,Rain,Heavy Rain,190,2013-02-26 05:43:00
11:51 PM,64.4,64.4,100,29.56,2.5,South,18.4,-,0.38,Rain,Heavy Rain,190,2013-02-26 05:51:00
11:56 PM,64.9,64.9,100,29.56,3.0,SSW,16.1,-,0.40,Rain,Heavy Rain,200,2013-02-26 05:56:00